Погода Первомайское

Погода Первомайское : погода сейчас, прогноз погоды и архив. Всё, что Вы хотите узнать о погоде Первомайское!

Хотите узнать прогноз погоды Первомайское? Тогда Вам сюда: Погода Первомайское

Поиск расширенной информации на нашем сайте:

Другие новости

Новости СМИ2

Главная страница сайта

Новости сайта

03.07.2017

Напоминаем, что на нашем специализированном сайте Метеоцентр.Азия вы можете получить высокодетализированные автоматические прогнозы погоды по пунктам России, СНГ и мира в авиационном формате (включающие направление и скорость ветра, видимость, явления погоды, количество и форму облачности, нижнюю и верхнюю границу облачности).


Погода Первомайское - сегодня

Время (UTC), дата Ветер
(°,м/с) 
Видим.   Явления Облачность Т
(°С)
Тd
(°С)
f(%) Тe
(°С)
Pmin
(гПа)
dP
(гПа)
Po
(мм)
O2
(г/м3)
Тmin Tmax R s Состояние
почвы
21 15.04.18 210 (ЮЗ) 10 км    8/0 средняя 
[Ac trans]
+3.4 -4.3 57 +2  1004.8  -0.8  743  296           
00 16.04.18 180 (Ю) 10 км    9/8 600 м средняя 
[Sc|Ac trans]
+2.8 -3.6 63 +2  1004.2  -0.6  743  297  +2.8      мокрый или
старый снег
10-40% 
03 16.04.18 200 (Ю) 10 км    10/8 600 м кучево-дожд., средняя 
[Cb cap|Ac As]
+3.6 -1.3 70 +2  1003.7  -0.5  742  295           
06 16.04.18 190 (Ю) 10 км  слаб. ливневой дождь  10/5 600 м кучево-дожд., средняя 
[Cb cap|Ac As]
+4.9 +0.9 75 +3  1002.6  -1  741  293           
09 16.04.18 190 (Ю) 10 км  слаб. ливневой дождь  10/8 600 м кучево-дожд., средняя 
[Cb cap|Ac As]
+3.9 +1.5 84 +2  1001.9  -0.8  741  294           
12 16.04.18 190 (Ю) 10 км  слаб. ливневой дождь  10/8 600 м кучево-дожд., средняя 
[Cb cap|Ac As]
+3.7 +1.9 88 +2  1000.8  -1  740  294    +5     
15 16.04.18 140 (ЮВ) 10 км  в посл. час ливневой дождь  10/4 600 м кучево-дожд., средняя 
[Cb cap|Ac As]
+3.3 +2 91 +3  998.6  -2.2  738  294           
00 17.04.18 230 (ЮЗ) 5{12}  10 км  в посл. час ливневой снег  4/4 600 м кучево-дожд. 
[Cb cap]
-0.7 -5.3 71 -4  1002.4  3.4  741  300  -0.7    <0.5  равномерный
сухой снег
100% 
09 17.04.18 320 (СЗ) 0050 м  ливневой снег  9/8 300 м кучево-дожд., верхняя 
[Cb cap|Ci fib]
-1.9 -3.4 89 -4  1008.9  746  303           
12 17.04.18 270 (З) 10 км  {ливн. осадки}  8/3 600 м кучево-дожд., средняя, верхняя 
[Cb cap|Ac trans|Ci fib]
-0.5 -5.9 67 -1  1010.1  1.2  747  302    +1.5     
15 17.04.18 240 (ЮЗ) 10 км  в посл. час ливневой снег  10/3 600 м кучево-дожд., средняя 
[Cb cap|Ac As]
-2.7 -5.8 79 -2  1012.5  2.3  748  305           
18 17.04.18 290 (З) 10 км  {ливн. осадки}  10/0 средняя 
[Ac As]
-3.8 -10.8 58 -5  1014.9  2.3  750  308           
21 17.04.18 300 (СЗ) 10 км    ясно 
-6.8 -13.4 59 -8  1017.2  2.1  752  312           
00 18.04.18 250 (З) 10 км    4/3 1000 м средняя 
[Sc|Ac trans]
-7.8 -12.2 71 -8  1019.1  1.8  753  314  -8.3    0.0  <0.5  равномерный
сухой снег
100% 
03 18.04.18 270 (З) 10 км    6/6 50 м средняя 
[Ac trans]
-5.5 -13.6 53 -5  1021  755  312           
06 18.04.18 250 (З) 10 км    9/6 600 м кучево-дожд., средняя 
[Cb cap|Ac trans]
-3.5 -12.1 51 -5  1021.5  0.6  755  309           
09 18.04.18 240 (ЮЗ) 10 км  в посл. час ливневой снег  9/6 600 м кучево-дожд., средняя 
[Cb cap|Ac trans]
-1.5 -11.1 48 -3  1021.4  755  307           
12 18.04.18 270 (З) 4000 м  слаб. ливневой снег  9/6 600 м кучево-дожд., средняя 
[Cb cap|Ac lent]
-2.4 -9.8 57 -2  1021.4  755  308    -0.7  0.0     
15 18.04.18 тихо ()   10 км  {ливн. осадки}  3/0 верхняя 
[Ci fib]
-4.8 -10.1 66 -5  1022  0.4  755  311           
18 18.04.18 160 (Ю) 10 км  {ливн. осадки}  3/0 верхняя 
[Ci fib]
-6.7 -9.8 79 -6  1022.1  755  313           
21 18.04.18 тихо ()   10 км    4/0 верхняя 
[Ci fib]
-7 -8.7 88 -7  1021.8  -0.3  755  313           
00 19.04.18 тихо ()   10 км    ясно 
-9.1 -10.7 88 -9  1022.3  0.4  755  316  -9.4    0.0  мокрый или
старый снег
10-40% 
03 19.04.18 170 (Ю) 10 км    ясно 
-1.9 -9.5 56 -1  1021.7  -0.3  755  307           
06 19.04.18 200 (Ю) 10 км    1/1 1000 м 
[Cu hum]
+1.7 -12.2 35 +1  1020.1  -1.4  754  303           
09 19.04.18 220 (ЮЗ) 10 км    6/6 1000 м 
[Cu hum]
+3.2 -11.5 33 +2  1018.5  -1.4  753  301           
Время (UTC), дата Ветер
(°,м/с) 
Видим.   Явления Облачность Т
(°С)
Тd
(°С)
f(%) Тe
(°С)
Pmin
(гПа)
dP
(гПа)
Po
(мм)
O2
(г/м3)
Тmin Tmax R s Состояние
почвы

Для получения пояснительной информации подведите курсор к названию столбца.

ПОГОДА Первомайское - архив

Всё, что Вы хотите узнать о погоде Первомайское - удобно и подробно!

Выберите нужную дату (начиная с 1 января 2015* года) и нажмите кнопку "Найти".
Будут отображены архивные сводки погоды по пункту Первомайское, начиная с указанной даты.


Отображать данные в формате CSV (для использования в таблицах Excel)


Внимание! Наш архив погоды предназначен исключительно для личного некоммерческого использования в познавательных целях. Если Вам необходимы официальные справки о состоянии погоды (для производственных, юридических, коммерческих и т.п. целей), обращайтесь в органы Росгидромета.

*Примечание: данная дата относится к архиву по метеостанциям СССР (Россия, СНГ, Балтия).
Архив по метеостанциям Зарубежной Европы и Азии (кроме Китая) хранится 10 дней, по другим регионам земного шара (Китай, Африка, Америка, Австралия, Океания) - 1 день.

Первомайское - район местоположения метеостанции


Название, широта, долгота, высота метеостанции:
Первомайское 57.1°ш. 86.2°д. 114 м над ур. моря [Российская Федерация]

Дополнительная информация

В oтличие oт бoльшинства пoгoдных сайтoв мы публикуем пoдрoбную метеoинфoрмацию в детальнoм прoфессиoнальнoм фoрмате.

Характеристики температуры и влажнoсти вoздуха измеряются на высoте 2 м в тени вдали oт зданий и деревьев.
Скoрoсть ветра измеряется на высoте 10 м (на урoвне рoста челoвека скoрoсть ветра ниже в 1.5-2 раза). Если метеoстанция нахoдится в гoрoде или в лесу, тo скoрoсть ветра занижена на 2-4 м/с пo сравнению с oткрытым местoм. Скoрoсть ветра над акватoриями крупных рек и oзёр, а также на вершинах хoлмoв на 2-5 м/с выше, чем в oбычных услoвиях.
Атмoсфернoе давление в разных тoчках местнoсти мoжет значительнo oтличаться oт давления на метеoстанции, в зависимoсти oт услoвий рельефа (при пoдъёме на 10 м давление пoнижается примернo на 1 мм рт.ст.).